Location: Stone Trail Observatory
(44.2408°N, 105.6081°W)
Time: 09:32:03
(UTC-06:00)

Iridium 6 - Visible Passes

Search period start: 21 April 2014 00:00
Search period end: 01 May 2014 00:00
Orbit: 776 x 779 km, 86.4° (Epoch: 20 April)

Date Brightness Start Highest point End Pass type
(mag) Time Alt. Az. Time Alt. Az. Time Alt. Az.
21 Apr 6.9 03:24:07 10° NNE 03:28:54 36° E 03:33:19 12° SE visible
21 Apr 6.5 05:05:05 10° NNW 05:09:29 28° W 05:13:45 11° SW visible
22 Apr 7.7 02:51:14 10° NNE 02:55:07 21° ENE 02:58:58 10° ESE visible
22 Apr 5.7 04:31:07 10° NNW 04:36:08 50° W 04:39:53 17° SSW visible
23 Apr 8.2 02:19:23 10° NE 02:21:10 12° ENE 02:22:57 10° E visible
23 Apr 5.5 03:57:26 10° N 04:02:41 90° W 04:06:03 23° S visible
24 Apr 6.2 03:24:00 10° N 03:29:05 51° E 03:32:15 22° SSE visible
24 Apr 6.9 05:05:39 10° NNW 05:09:23 20° W 05:12:42 12° WSW visible
25 Apr 7.2 02:50:52 10° NNE 02:55:22 29° ENE 02:58:30 17° SE visible
25 Apr 6.2 04:31:25 10° NNW 04:36:07 35° W 04:38:56 21° SW visible
26 Apr 7.9 02:18:13 10° NNE 02:21:31 17° ENE 02:24:45 10° ESE visible
26 Apr 5.5 03:57:34 10° N 04:02:44 64° W 04:05:12 30° SSW visible
27 Apr 5.6 03:23:59 10° N 03:29:13 73° E 03:31:29 34° SSE visible
27 Apr 7.3 05:06:32 10° NW 05:09:15 14° WNW 05:11:56 10° WSW visible
28 Apr 6.6 02:50:39 10° N 02:55:34 40° E 02:57:48 27° SE visible
28 Apr 6.7 04:31:50 10° NNW 04:36:03 25° W 04:38:15 19° WSW visible
29 Apr 7.5 02:17:40 10° NNE 02:21:47 23° ENE 02:24:07 17° ESE visible
29 Apr 5.9 03:57:47 10° NNW 04:02:43 44° W 04:04:34 32° SW visible
30 Apr 8.0 01:45:25 10° NE 01:47:52 13° ENE 01:50:18 10° E visible
30 Apr 5.4 03:24:02 10° N 03:29:16 80° W 03:30:55 45° S visible
